Location: Newark
(56.0692°N, 115.8617°E)
Time: 11:01:35
(UTC+00:00)

Vanguard 2 Rocket - Pass Details

Date: 29 May 2020
Orbit: 556 x 3325 km, 32.9° (Epoch: 14 July)

Event Time Altitude Azimuth Distance (km) Brightness Sun altitude
Rises 09:04:06 0° 229° (SW) 4,628 11.2 27.6°
Reaches altitude 10° 09:07:30 10° 216° (SW) 4,031 10.8 27.1°
Maximum altitude 09:16:02 25° 167° (SSE) 3,809 10.1 25.9°
Drops below altitude 10° 09:28:00 10° 122° (ESE) 5,797 10.6 24.2°
Sets 09:34:19 0° 112° (ESE) 7,115 10.9 23.4°
